Content
SEND FEEDBACK

Daily
Averages
Monthly
Summary
Canada

POSTE-DE-LA-BALEINE, QUEBEC


Home > North America > Canada > Quebec
Elevation: 60 feet     Latitude: 55 17N     Longitude: 077 46W

WEATHER
 
SELECT A DAY
Number of Records: 183,379;   Date Range: 1/1/95 - 11/20/14
 
SHARE

PRINT THIS DATA

[ ← Previous Day ]
WEATHER ALMANAC - FEBRUARY 13, 2013
[ Next Day → ]
[ °C ]   °F
Weather ElementAverageHighLow
Temperature2.9 °F12.2 °F (3:00 pm)-11.2 °F (1:00 am)
Dewpoint-1.3 °F8.6 °F (4:00 pm)-18.4 °F (1:00 am)
Humidity79.8 %92 % (10:00 pm)70 % (1:00 am)
Wind Speed10.3 mph15 mph (5:00 pm)
Wind Gust19.6 mph (9:00 am)
Weather ElementAverage
Visibility10.5 mi
Wind DirectionESE (121.1 °)

Weather ElementTotal
Precipitation---
Heating Degree Days64.5 (Base 65)
Averaged from 27 records on February 13, 2013
WEATHER CONDITIONS BREAKOUT
WIND DIRECTION BREAKOUT
WEATHER BY HOUR - FEBRUARY 13, 2013
[ °C ]   °F
Local TimeTemperatureDewpointHumidityBarometerVisibilityWind DirectionWind SpeedGust SpeedPrecipitationEventsConditions
1:00 AM-11.2 °F-18.4 °F70 %29.65 in12.0 miSE (130°)6.9 mphPartly Cloudy
2:00 AM-11.2 °F-18.4 °F70 %29.65 in12.0 miSE (130°)4.6 mphScattered Clouds
3:00 AM-9.4 °F-16.6 °F71 %29.64 in12.0 miSE (140°)5.8 mphPartly Cloudy
4:00 AM-9.4 °F-14.8 °F77 %29.63 in12.0 miSE (130°)8.1 mphScattered Clouds
5:00 AM-5.8 °F-11.2 °F77 %29.62 in12.0 miESE (120°)8.1 mphPartly Cloudy
6:00 AM-5.8 °F-13.0 °F71 %29.62 in12.0 miESE (120°)10.4 mphPartly Cloudy
7:00 AM-4.0 °F-9.4 °F78 %29.62 in12.0 miESE (120°)10.4 mphScattered Clouds
8:00 AM-4.0 °F-9.4 °F78 %29.61 in12.0 miESE (120°)11.5 mphMostly Cloudy
9:00 AM-2.2 °F-7.6 °F78 %29.60 in12.0 miSE (130°)13.8 mph19.6 mphMostly Cloudy
10:00 AM1.4 °F-4.0 °F78 %29.61 in12.0 miESE (120°)10.4 mphMostly Cloudy
11:00 AM3.2 °F-2.2 °F78 %29.60 in12.0 miSE (130°)10.4 mphMostly Cloudy
12:00 PM8.6 °F3.2 °F79 %29.58 in12.0 miESE (120°)11.5 mphMostly Cloudy
1:00 PM10.4 °F5.0 °F79 %29.56 in12.0 miESE (120°)10.4 mph17.3 mphMostly Cloudy
1:44 PM0.0 °F0.0 °F12.0 miEast (100°)13.8 mph
2:00 PM10.4 °F5.0 °F79 %29.55 in12.0 miESE (120°)9.2 mphSnowLight Snow
2:10 PM0.0 °F0.0 °F12.0 miESE (120°)11.5 mph17.3 mphOvercast
2:17 PM0.0 °F0.0 °F10.0 miESE (120°)11.5 mph17.3 mph
3:00 PM12.2 °F6.8 °F79 %29.56 in10.0 miESE (110°)10.4 mph17.3 mphSnowLight Snow
4:00 PM12.2 °F8.6 °F85 %29.56 in10.0 miESE (110°)12.7 mphOvercast
4:51 PM0.0 °F0.0 °F10.0 miESE (120°)13.8 mph
5:00 PM12.2 °F8.6 °F85 %29.56 in10.0 miESE (120°)15.0 mphSnowLight Snow
6:00 PM12.2 °F8.6 °F85 %29.57 in10.0 miESE (120°)10.4 mphSnowLight Snow
7:00 PM12.2 °F8.6 °F85 %29.58 in4.0 miESE (120°)10.4 mphSnowLight Snow
8:00 PM12.2 °F8.6 °F85 %29.58 in6.0 miESE (110°)10.4 mphSnowLight Snow
9:00 PM12.2 °F8.6 °F85 %29.58 in5.0 miESE (120°)10.4 mphSnowLight Snow
10:00 PM10.4 °F8.6 °F92 %29.57 in8.0 miESE (120°)8.1 mphSnowLight Snow
11:00 PM10.4 °F8.6 °F92 %29.57 in8.0 miSE (130°)8.1 mphSnowLight Snow
Hourly data recorded from CYGW, located miles away from Poste-de-la-Baleine, Quebec







STORIES FROM OUR PARTNERS